Location: *
(46.0770°N, 1.6444°E)
Time: 12:01:54
(UTC+00:00)

CZ-2C R/B - Pass Details

Date: 13 December 2019
Orbit: 785 x 870 km, 98.3° (Epoch: 22 January)

Event Time Altitude Azimuth Distance (km) Brightness Sun altitude
Rises 06:45:24 0° 139° (SE) 3,325 7.3 -7.1°
Reaches altitude 10° 06:47:54 10° 131° (SE) 2,385 6.6 -6.7°
Maximum altitude 06:52:39 35° 67° (ENE) 1,261 4.1 -6.0°
Drops below altitude 10° 06:57:20 10° 2° (N) 2,364 4.8 -5.2°
Sets 06:59:49 0° 354° (N) 3,292 5.4 -4.9°
